Location: Limerick
(52.6650°N, 8.6230°W)
Time: 02:21:02
(UTC+01:00)

Amateur Radio Satellites - All Passes

Search period start: 21 September 2017 01:51
Search period end: 22 September 2017 01:51
Location: Limerick, 52.6650°N, 8.6230°W

Satellite Date Start Highest point End Downlink Frequencies (MHz)
Time Altitude Azimuth
SPROUT 21 Sep 01:54:25 01:58:04 28° 266° (W) 02:01:46 437.525
QB50P2 21 Sep 01:55:00 01:59:18 77° 286° (WNW) 02:03:35 145.880/145.840
Oscar 19 21 Sep 02:02:22 02:05:59 19° 88° (E) 02:09:34 437.125/150
ISS 21 Sep 02:13:50 02:17:07 76° 181° (S) 02:20:25 437.550
BUGSAT 1 21 Sep 02:18:01 02:22:01 42° 99° (E) 02:26:01 437.445
BEESAT 21 Sep 02:21:33 02:25:01 21° 56° (NE) 02:28:31 436.000
PCSat 21 Sep 02:21:59 02:26:14 24° 250° (WSW) 02:30:28 145.827
M-CUBED/EXP-1 PRIME 21 Sep 02:33:00 02:36:25 57° 108° (ESE) 02:39:40 437.505
NANOSAT C BR1 21 Sep 02:34:15 02:38:16 41° 293° (WNW) 02:42:16 145.865
AIST 2D 21 Sep 02:39:57 02:41:19 12° 303° (WNW) 02:42:41 435.315
UKube-1 21 Sep 02:48:04 02:52:15 49° 260° (W) 02:56:27 .
DX 1 21 Sep 02:48:13 02:52:11 34° 263° (W) 02:56:11 434.975-435.025
Gurwin Techsat 1B 21 Sep 02:58:47 03:03:43 37° 96° (E) 03:08:37 435.225
nSIGHT-1 21 Sep 02:59:51 03:03:05 65° 191° (S) 03:06:20 .
YUBILEINY 21 Sep 03:00:57 03:06:51 21° 287° (WNW) 03:12:46 435.215
DUCHIFAT 1 21 Sep 03:05:01 03:08:31 26° 298° (WNW) 03:12:02 145.980
AO-7 21 Sep 03:13:17 03:16:49 13° 80° (E) 03:20:20 .
POLYITAN 1 21 Sep 03:13:55 03:16:57 19° 302° (WNW) 03:19:59 437.675
AO-85 21 Sep 03:14:02 03:16:42 16° 9° (N) 03:19:29 145.980
BEESAT 2 21 Sep 03:14:39 03:17:09 15° 7° (N) 03:19:37 435.950
BEESAT 3 21 Sep 03:15:41 03:18:36 19° 18° (NNE) 03:21:30 437.485
Tancredo 1 21 Sep 03:16:24 03:18:31 20° 210° (SSW) 03:20:37 437.200
ITUPSAT 1 21 Sep 03:18:40 03:23:18 53° 68° (ENE) 03:28:00 437.325
EO-79 21 Sep 03:19:23 03:22:11 17° 303° (WNW) 03:25:00 145.935-145.965
MOZHAYETS 4 21 Sep 03:21:24 03:25:53 52° 69° (ENE) 03:30:25
O/OREOS (USA 219) 21 Sep 03:30:12 03:33:51 25° 104° (ESE) 03:37:33 437.305
QB50P2 21 Sep 03:32:22 03:34:24 13° 306° (NW) 03:36:25 145.880/145.840
CUBESAT XI-V 21 Sep 03:39:48 03:43:29 23° 59° (ENE) 03:47:10 437.345
Oscar 19 21 Sep 03:40:44 03:45:56 79° 289° (WNW) 03:51:06 437.125/150
ISS 21 Sep 03:50:17 03:53:28 45° 200° (SSW) 03:56:38 437.550
BUGSAT 1 21 Sep 03:53:42 03:57:13 26° 297° (WNW) 04:00:44 437.445
BEESAT 21 Sep 03:57:33 04:02:19 75° 256° (WSW) 04:07:08 436.000
KKS-1 21 Sep 04:07:26 04:10:23 18° 56° (NE) 04:13:20 437.445
M-CUBED/EXP-1 PRIME 21 Sep 04:08:17 04:10:29 16° 309° (NW) 04:12:37 437.505
RS-15 21 Sep 04:31:06 04:35:15 12° 88° (E) 04:39:22 29.354- 29.394
nSIGHT-1 21 Sep 04:36:21 04:39:06 25° 210° (SSW) 04:41:51 .
ITAMSAT 1 21 Sep 04:38:26 04:43:05 32° 95° (E) 04:47:42 435.822/435.867
Gurwin Techsat 1B 21 Sep 04:38:45 04:43:45 43° 296° (WNW) 04:48:44 435.225
STARS 21 Sep 04:41:23 04:44:09 17° 55° (NE) 04:46:56 437.465
BEESAT 2 21 Sep 04:52:29 04:56:05 29° 30° (NNE) 04:59:39 435.950
BEESAT 3 21 Sep 04:53:01 04:56:59 53° 40° (NE) 05:00:52 437.485
AO-85 21 Sep 04:54:23 04:58:15 33° 32° (NNE) 05:02:21 145.980
ITUPSAT 1 21 Sep 04:57:29 05:01:26 25° 267° (W) 05:05:25 437.325
MOZHAYETS 4 21 Sep 04:59:32 05:03:19 24° 268° (W) 05:07:08
AO-7 21 Sep 05:03:29 05:11:38 55° 103° (ESE) 05:19:43 .
O/OREOS (USA 219) 21 Sep 05:08:33 05:12:59 53° 305° (NW) 05:17:28 437.305
CUBESAT XI-V 21 Sep 05:15:49 05:20:29 62° 258° (WSW) 05:25:11 437.345
Oscar 19 21 Sep 05:21:13 05:24:31 17° 309° (NW) 05:27:48 437.125/150
ISS 21 Sep 05:27:35 05:29:21 14° 219° (SW) 05:31:07 437.550
BEESAT 21 Sep 05:39:09 05:40:57 12° 275° (W) 05:42:44 436.000
KKS-1 21 Sep 05:41:59 05:46:25 78° 255° (WSW) 05:50:53 437.445
DOVE 4 21 Sep 06:09:26 06:12:48 23° 92° (E) 06:16:15 437.250
STARS 21 Sep 06:15:34 06:19:57 82° 257° (WSW) 06:24:20 437.465
ITAMSAT 1 21 Sep 06:17:45 06:22:44 48° 295° (WNW) 06:27:43 435.822/435.867
Gurwin Techsat 1B 21 Sep 06:21:33 06:22:26 10° 317° (NW) 06:23:20 435.225
BEESAT 2 21 Sep 06:30:06 06:34:09 66° 231° (SW) 06:38:09 435.950
BEESAT 3 21 Sep 06:30:58 06:34:19 26° 241° (WSW) 06:37:37 437.485
RS-15 21 Sep 06:32:52 06:44:20 49° 113° (ESE) 06:55:45 29.354- 29.394
AO-85 21 Sep 06:34:38 06:38:53 59° 232° (SW) 06:43:28 145.980
XW-2D 21 Sep 06:35:35 06:37:27 13° 87° (E) 06:39:18 145.860 - 145.880
XW-2B 21 Sep 06:47:20 06:49:50 16° 89° (E) 06:52:19 145.730 - 145.750
XW-2F 21 Sep 06:49:57 06:52:28 17° 90° (E) 06:54:58 145.980 - 146.000
O/OREOS (USA 219) 21 Sep 06:51:03 06:53:28 14° 328° (NNW) 06:55:55 437.305
AO-7 21 Sep 06:56:32 07:04:23 49° 305° (NW) 07:12:12 .
STRAND 1 21 Sep 07:05:32 07:10:11 37° 63° (ENE) 07:14:53 437.568
XW-2C 21 Sep 07:07:56 07:11:13 26° 94° (E) 07:14:28 145.795 - 145.815
LilacSat-2 21 Sep 07:16:12 07:19:45 33° 96° (E) 07:23:15 437.200
KKS-1 21 Sep 07:22:20 07:23:45 11° 275° (W) 07:25:09 437.445
NUDT-PHONESAT 21 Sep 07:23:25 07:26:41 27° 94° (E) 07:29:56 437.300
CUTE-I 21 Sep 07:42:45 07:47:54 47° 99° (E) 07:53:02 437.470
HO-68 21 Sep 07:45:41 07:51:30 26° 90° (E) 07:57:16 435.675
KAITUO 1B 21 Sep 07:46:33 07:50:14 49° 100° (E) 07:53:53 145.475/437.950
DOVE 4 21 Sep 07:46:46 07:50:45 45° 291° (WNW) 07:54:49 437.250
SEEDS 21 Sep 07:46:57 07:48:15 11° 85° (E) 07:49:33 437.485
STARS 21 Sep 07:55:27 07:57:01 12° 274° (W) 07:58:35 437.465
ITAMSAT 1 21 Sep 07:59:28 08:01:04 11° 315° (NW) 08:02:42 435.822/435.867
CUBEBUG 2 21 Sep 08:03:55 08:07:02 17° 88° (E) 08:10:10 437.445
CUTE 1.7 + AOD 2 21 Sep 08:07:04 08:10:40 26° 93° (E) 08:14:14 437.475
XW-2D 21 Sep 08:08:17 08:12:08 73° 286° (WNW) 08:15:55 145.860 - 145.880
BEESAT 2 21 Sep 08:10:29 08:11:06 10° 250° (WSW) 08:11:42 435.950
FO-29 21 Sep 08:14:51 08:19:10 24° 57° (ENE) 08:23:18 435.910
UWE-3 21 Sep 08:17:51 08:20:27 15° 86° (E) 08:23:05 435.000/436.395/437.385
AO-85 21 Sep 08:17:54 08:18:32 10° 250° (WSW) 08:19:11 145.980
AAUSAT CUBESAT 2 21 Sep 08:19:17 08:20:30 11° 85° (E) 08:21:44 437.432
XW-2B 21 Sep 08:20:35 08:24:23 56° 288° (WNW) 08:28:06 145.730 - 145.750
XW-2F 21 Sep 08:23:10 08:26:55 55° 289° (WNW) 08:30:38 145.980 - 146.000
XW-2A 21 Sep 08:27:22 08:29:40 17° 91° (E) 08:31:57 145.665 - 145.685
XW-2C 21 Sep 08:41:58 08:45:29 34° 293° (WNW) 08:48:57 145.795 - 145.815
RS-15 21 Sep 08:43:59 08:56:23 75° 320° (NW) 09:08:40 29.354- 29.394
STRAND 1 21 Sep 08:44:35 08:49:22 40° 263° (W) 08:54:12 437.568
AO-7 21 Sep 08:50:02 08:55:19 19° 329° (NNW) 09:00:35 .
LilacSat-2 21 Sep 08:50:37 08:53:58 28° 295° (WNW) 08:57:16 437.200
NUDT-PHONESAT 21 Sep 08:57:13 09:00:34 31° 294° (WNW) 09:03:55 437.300
AO-73 21 Sep 09:10:56 09:14:35 23° 91° (E) 09:18:13 145.935
ZACube-1 21 Sep 09:11:44 09:15:35 25° 92° (E) 09:19:23 437.345
Oscar 11 21 Sep 09:14:10 09:17:04 17° 89° (E) 09:19:57 .
SEEDS 21 Sep 09:20:25 09:24:39 84° 105° (ESE) 09:28:50 437.485
KAITUO 1B 21 Sep 09:21:11 09:23:56 19° 299° (WNW) 09:26:40 145.475/437.950
CUTE-I 21 Sep 09:23:04 09:27:50 34° 299° (WNW) 09:32:36 437.470
HO-68 21 Sep 09:32:49 09:40:03 83° 291° (WNW) 09:47:15 435.675
UNISAT 6 21 Sep 09:35:04 09:38:57 32° 64° (ENE) 09:42:55 437.425
CUBEBUG 2 21 Sep 09:39:30 09:44:09 75° 287° (WNW) 09:48:52 437.445
CUTE 1.7 + AOD 2 21 Sep 09:42:38 09:46:39 41° 292° (WNW) 09:50:38 437.475
XW-2D 21 Sep 09:44:43 09:45:35 11° 306° (NW) 09:46:28 145.860 - 145.880
AAUSAT CUBESAT 2 21 Sep 09:52:29 09:56:39 85° 105° (ESE) 10:00:45 437.432
UWE-3 21 Sep 09:52:53 09:57:32 88° 293° (WNW) 10:02:14 435.000/436.395/437.385
PRISM 21 Sep 09:53:43 09:57:15 28° 63° (ENE) 10:00:45 437.425
FO-29 21 Sep 09:58:18 10:03:57 69° 256° (WSW) 10:09:13 435.910
TIGRISAT 21 Sep 09:59:16 10:03:26 48° 68° (ENE) 10:07:45 435.000
XW-2A 21 Sep 09:59:18 10:02:38 45° 289° (WNW) 10:05:55 145.665 - 145.685
DELFI C3 21 Sep 10:15:03 10:17:34 16° 89° (E) 10:20:04 145.870
Max Valier Satellite 21 Sep 10:22:50 10:24:58 15° 89° (E) 10:27:07 145.860
AO-7 21 Sep 10:42:40 10:44:55 11° 357° (N) 10:47:09 .
AO-73 21 Sep 10:46:38 10:51:06 55° 290° (WNW) 10:55:35 145.935
ZACube-1 21 Sep 10:47:39 10:52:05 49° 291° (WNW) 10:56:30 437.345
Oscar 11 21 Sep 10:49:20 10:53:41 67° 288° (WNW) 10:57:59 .
DUCHIFAT 1 21 Sep 10:53:35 10:55:12 12° 52° (NE) 10:56:49 145.980
SEEDS 21 Sep 10:57:17 10:59:46 15° 304° (WNW) 11:02:13 437.485
RS-15 21 Sep 10:59:08 11:11:00 48° 351° (N) 11:22:34 29.354- 29.394
POLYITAN 1 21 Sep 11:01:27 11:04:08 17° 56° (ENE) 11:06:50 437.675
EO-79 21 Sep 11:06:23 11:09:16 18° 58° (ENE) 11:12:09 145.935-145.965
UNISAT 6 21 Sep 11:11:36 11:15:37 36° 264° (W) 11:19:46 437.425
CUBEBUG 2 21 Sep 11:17:35 11:20:02 14° 306° (NW) 11:22:32 437.445
QB50P2 21 Sep 11:18:14 11:21:38 24° 61° (ENE) 11:25:04 145.880/145.840
HO-68 21 Sep 11:21:19 11:26:54 25° 313° (NW) 11:32:30 435.675
PRISM 21 Sep 11:28:35 11:32:25 37° 262° (W) 11:36:15 437.425
AAUSAT CUBESAT 2 21 Sep 11:29:13 11:31:32 15° 304° (NW) 11:33:51 437.432
EO-88 21 Sep 11:29:18 11:32:55 52° 100° (E) 11:36:30 145.990 - 145.960
UWE-3 21 Sep 11:30:31 11:33:23 16° 304° (NW) 11:36:15 435.000/436.395/437.385
TIGRISAT 21 Sep 11:36:51 11:40:24 24° 268° (W) 11:44:02 435.000
BUGSAT 1 21 Sep 11:41:40 11:42:27 10° 51° (NE) 11:43:14 437.445
AIST 2D 21 Sep 11:44:27 11:48:00 75° 74° (ENE) 11:51:35 435.315
FO-29 21 Sep 11:48:10 11:50:03 12° 276° (W) 11:51:55 435.910
DELFI C3 21 Sep 11:48:50 11:52:43 59° 288° (WNW) 11:56:33 145.870
Oscar 19 21 Sep 11:49:38 11:51:17 11° 45° (NE) 11:52:56 437.125/150
M-CUBED/EXP-1 PRIME 21 Sep 11:49:43 11:53:22 30° 59° (ENE) 11:56:50 437.505
O/OREOS (USA 219) 21 Sep 11:54:15 11:58:08 26° 45° (NE) 12:02:00 437.305
Max Valier Satellite 21 Sep 11:55:29 11:59:13 63° 288° (WNW) 12:02:55 145.860
NANOSAT C BR1 21 Sep 11:56:04 12:00:01 42° 67° (ENE) 12:04:00 145.865
YUBILEINY 21 Sep 12:16:20 12:23:17 28° 78° (ENE) 12:30:14 435.215
AO-73 21 Sep 12:25:18 12:26:24 11° 310° (NW) 12:27:30 145.935
DUCHIFAT 1 21 Sep 12:25:57 12:30:07 71° 72° (ENE) 12:34:19 145.980
Oscar 11 21 Sep 12:27:22 12:29:01 12° 308° (NW) 12:30:40 .
AO-7 21 Sep 12:29:51 12:34:21 16° 25° (NNE) 12:38:51 .
ESTCUBE 1 21 Sep 12:30:12 12:34:09 29° 94° (E) 12:38:04 437.505/2401.250
POLYITAN 1 21 Sep 12:35:11 12:39:24 78° 257° (WSW) 12:43:40 437.675
LO-87 21 Sep 12:35:15 12:38:42 42° 99° (E) 12:42:09 145.935 - 145.965
EO-79 21 Sep 12:40:23 12:44:34 70° 257° (WSW) 12:48:49 145.935-145.965
Gurwin Techsat 1B 21 Sep 12:47:50 12:51:44 21° 54° (NE) 12:55:39 435.225
QB50P2 21 Sep 12:53:06 12:57:11 48° 261° (W) 13:01:20 145.880/145.840
EO-88 21 Sep 13:03:42 13:06:15 18° 299° (WNW) 13:08:47 145.990 - 145.960
VELOX 1 21 Sep 13:12:38 13:15:29 17° 89° (E) 13:18:18 145.980
BUGSAT 1 21 Sep 13:13:01 13:17:00 64° 71° (ENE) 13:21:03 437.445
RS-15 21 Sep 13:14:17 13:26:20 56° 24° (NNE) 13:37:51 29.354- 29.394
AIST 2D 21 Sep 13:20:31 13:21:40 11° 273° (W) 13:22:51 435.315
M-CUBED/EXP-1 PRIME 21 Sep 13:23:41 13:27:43 39° 255° (WSW) 13:31:30 437.505
Oscar 19 21 Sep 13:24:29 13:29:29 48° 66° (ENE) 13:34:29 437.125/150
NANOSAT C BR1 21 Sep 13:32:22 13:35:53 26° 267° (W) 13:39:27 145.865
SPROUT 21 Sep 13:33:15 13:37:09 32° 96° (E) 13:41:01 437.525
O/OREOS (USA 219) 21 Sep 13:33:22 13:37:55 62° 246° (WSW) 13:42:28 437.305
DUCHIFAT 1 21 Sep 14:03:44 14:06:16 16° 272° (W) 14:08:50 145.980
ESTCUBE 1 21 Sep 14:06:50 14:11:06 42° 294° (WNW) 14:15:19 437.505/2401.250
LO-87 21 Sep 14:09:12 14:11:53 20° 297° (WNW) 14:14:35 145.935 - 145.965
YUBILEINY 21 Sep 14:10:24 14:19:08 83° 281° (WNW) 14:27:55 435.215
POLYITAN 1 21 Sep 14:15:05 14:15:57 10° 276° (W) 14:16:48 437.675
AO-7 21 Sep 14:17:29 14:24:56 38° 50° (NE) 14:32:22 .
ITAMSAT 1 21 Sep 14:25:07 14:28:34 18° 52° (NE) 14:32:02 435.822/435.867
Gurwin Techsat 1B 21 Sep 14:25:47 14:31:06 83° 254° (WSW) 14:36:28 435.225
UKube-1 21 Sep 14:29:34 14:32:34 18° 91° (E) 14:35:33 .
DX 1 21 Sep 14:30:05 14:33:46 26° 94° (E) 14:37:25 434.975-435.025
50 SAT 21 Sep 14:34:37 14:37:38 32° 98° (E) 14:40:38 437.505
VELOX 1 21 Sep 14:48:03 14:52:26 71° 288° (WNW) 14:56:47 145.980
BUGSAT 1 21 Sep 14:50:14 14:52:48 16° 271° (W) 14:55:23 437.445
Oscar 19 21 Sep 15:04:23 15:09:00 31° 266° (W) 15:13:38 437.125/150
SPROUT 21 Sep 15:09:10 15:13:03 34° 295° (WNW) 15:16:56 437.525
PCSat 21 Sep 15:27:00 15:30:45 19° 107° (ESE) 15:34:29 145.827
RS-15 21 Sep 15:27:39 15:39:46 78° 233° (SW) 15:51:14 29.354- 29.394
SO-50 21 Sep 15:28:55 15:32:38 26° 118° (ESE) 15:36:22 436.795
NO-84 21 Sep 15:44:51 15:48:16 38° 147° (SSE) 15:51:25 435.350 FM
BEESAT 21 Sep 15:52:19 15:55:40 19° 89° (E) 15:59:00 436.000
ITAMSAT 1 21 Sep 16:02:10 16:07:21 85° 72° (ENE) 16:12:34 435.822/435.867
UKube-1 21 Sep 16:04:44 16:09:01 63° 289° (WNW) 16:13:15 .
DX 1 21 Sep 16:06:00 16:10:08 43° 293° (WNW) 16:14:14 434.975-435.025
50 SAT 21 Sep 16:07:24 16:10:01 22° 296° (WNW) 16:12:37 437.505
Gurwin Techsat 1B 21 Sep 16:08:50 16:11:54 15° 274° (W) 16:14:58 435.225
AO-7 21 Sep 16:08:54 16:17:14 73° 252° (WSW) 16:25:36 .
YUBILEINY 21 Sep 16:10:29 16:17:27 26° 307° (NW) 16:24:27 435.215
VELOX 1 21 Sep 16:26:11 16:28:07 13° 308° (NW) 16:30:03 145.980
HO-68 21 Sep 16:38:17 16:41:11 13° 31° (NNE) 16:44:06 435.675
MOZHAYETS 4 21 Sep 16:47:13 16:51:47 53° 100° (E) 16:56:20
ITUPSAT 1 21 Sep 16:50:35 16:55:20 54° 101° (E) 17:00:03 437.325
CUBESAT XI-V 21 Sep 17:06:45 17:10:24 22° 91° (E) 17:14:02 437.345
PCSat 21 Sep 17:08:00 17:13:26 89° 134° (SE) 17:18:55 145.827
SO-50 21 Sep 17:08:19 17:12:47 63° 319° (NW) 17:17:18 436.795
DOVE 4 21 Sep 17:20:18 17:24:31 46° 69° (ENE) 17:28:35 437.250
NO-84 21 Sep 17:22:06 17:25:34 69° 345° (NNW) 17:28:45 435.350 FM
XW-2D 21 Sep 17:22:13 17:24:41 17° 59° (ENE) 17:27:12 145.860 - 145.880
KKS-1 21 Sep 17:28:18 17:30:29 13° 87° (E) 17:32:40 437.445
BEESAT 21 Sep 17:29:10 17:33:59 73° 289° (WNW) 17:38:45 436.000
CUTE-I 21 Sep 17:31:56 17:36:18 27° 57° (ENE) 17:40:40 437.470
XW-2B 21 Sep 17:34:01 17:36:52 20° 61° (ENE) 17:39:45 145.730 - 145.750
XW-2F 21 Sep 17:36:12 17:39:04 20° 61° (ENE) 17:41:57 145.980 - 146.000
RS-15 21 Sep 17:41:11 17:50:15 27° 260° (W) 17:59:02 29.354- 29.394
UKube-1 21 Sep 17:42:48 17:44:13 11° 309° (NW) 17:45:37 .
ITAMSAT 1 21 Sep 17:44:08 17:47:31 17° 272° (W) 17:50:55 435.822/435.867
XW-2C 21 Sep 17:54:31 17:57:56 31° 66° (ENE) 18:01:22 145.795 - 145.815
STARS 21 Sep 18:00:37 18:02:21 12° 86° (E) 18:04:06 437.465
LilacSat-2 21 Sep 18:03:19 18:06:57 39° 68° (ENE) 18:10:37 437.200
AO-7 21 Sep 18:05:53 18:11:31 19° 275° (W) 18:17:10 .
NUDT-PHONESAT 21 Sep 18:07:50 18:11:10 31° 66° (ENE) 18:14:32 437.300
HO-68 21 Sep 18:20:36 18:27:01 37° 55° (NE) 18:33:27 435.675
MOZHAYETS 4 21 Sep 18:24:51 18:28:40 26° 300° (WNW) 18:32:29
ITUPSAT 1 21 Sep 18:28:53 18:32:54 27° 301° (WNW) 18:36:54 437.325
KAITUO 1B 21 Sep 18:31:36 18:35:19 55° 71° (ENE) 18:39:04 145.475/437.950
SEEDS 21 Sep 18:43:21 18:46:16 18° 59° (ENE) 18:49:12 437.485
CUBESAT XI-V 21 Sep 18:43:33 18:48:08 57° 291° (WNW) 18:52:39 437.345
SO-50 21 Sep 18:50:25 18:54:03 23° 341° (NNW) 18:57:42 436.795
PCSat 21 Sep 18:52:47 18:57:30 29° 330° (NNW) 19:02:15 145.827
XW-2D 21 Sep 18:54:38 18:58:27 64° 258° (WSW) 19:02:19 145.860 - 145.880
DOVE 4 21 Sep 18:58:53 19:02:27 23° 267° (W) 19:05:54 437.250
NO-84 21 Sep 18:59:54 19:03:10 57° 7° (N) 19:06:10 435.350 FM
KKS-1 21 Sep 19:03:14 19:07:42 90° 304° (NW) 19:12:09 437.445
XW-2A 21 Sep 19:04:19 19:06:30 16° 61° (ENE) 19:08:42 145.665 - 145.685
CUTE 1.7 + AOD 2 21 Sep 19:04:55 19:08:54 39° 67° (ENE) 19:12:55 437.475
XW-2B 21 Sep 19:07:01 19:10:46 49° 260° (W) 19:14:33 145.730 - 145.750
CUBEBUG 2 21 Sep 19:07:33 19:11:08 26° 62° (ENE) 19:14:49 437.445
BEESAT 21 Sep 19:08:21 19:10:59 15° 309° (NW) 19:13:36 436.000
XW-2F 21 Sep 19:09:10 19:12:54 49° 261° (W) 19:16:40 145.980 - 146.000
CUTE-I 21 Sep 19:10:43 19:16:00 64° 258° (WSW) 19:21:18 437.470
AAUSAT CUBESAT 2 21 Sep 19:14:08 19:16:55 18° 59° (ENE) 19:19:43 437.432
UWE-3 21 Sep 19:20:11 19:23:36 23° 60° (ENE) 19:27:05 435.000/436.395/437.385
XW-2C 21 Sep 19:28:41 19:32:06 30° 265° (W) 19:35:33 145.795 - 145.815
STARS 21 Sep 19:34:58 19:39:24 84° 106° (ESE) 19:43:49 437.465
LilacSat-2 21 Sep 19:38:11 19:41:22 24° 267° (W) 19:44:34 437.200
NUDT-PHONESAT 21 Sep 19:41:45 19:45:03 29° 265° (W) 19:48:22 437.300
KAITUO 1B 21 Sep 20:07:07 20:09:39 17° 270° (W) 20:12:10 145.475/437.950
HO-68 21 Sep 20:07:22 20:14:27 64° 257° (WSW) 20:21:36 435.675
AO-73 21 Sep 20:11:43 20:15:39 34° 65° (ENE) 20:19:43 145.935
ZACube-1 21 Sep 20:12:52 20:16:54 38° 66° (ENE) 20:21:03 437.345
Oscar 11 21 Sep 20:14:09 20:17:52 28° 63° (ENE) 20:21:35 .
SEEDS 21 Sep 20:17:17 20:21:31 69° 258° (WSW) 20:25:47 437.485
CUBESAT XI-V 21 Sep 20:23:08 20:24:33 11° 311° (NW) 20:25:57 437.345
BEESAT 3 21 Sep 20:27:34 20:28:56 11° 111° (ESE) 20:30:17 437.485
SO-50 21 Sep 20:32:44 20:35:57 19° 6° (N) 20:39:13 436.795
XW-2A 21 Sep 20:35:32 20:38:52 52° 259° (W) 20:42:16 145.665 - 145.685
NO-84 21 Sep 20:37:29 20:40:33 55° 208° (SSW) 20:43:25 435.350 FM
PCSat 21 Sep 20:38:58 20:42:39 18° 356° (N) 20:46:20 145.827
KKS-1 21 Sep 20:40:59 20:43:39 16° 306° (NW) 20:46:19 437.445
CUTE 1.7 + AOD 2 21 Sep 20:41:06 20:44:50 28° 266° (W) 20:48:35 437.475
CUBEBUG 2 21 Sep 20:43:29 20:47:33 44° 262° (W) 20:51:48 437.445
AAUSAT CUBESAT 2 21 Sep 20:47:46 20:51:56 69° 257° (WSW) 20:56:06 437.432
STRAND 1 21 Sep 20:48:26 20:53:23 45° 99° (E) 20:58:18 437.568
UWE-3 21 Sep 20:55:30 20:59:43 55° 260° (W) 21:04:07 435.000/436.395/437.385
CUTE-I 21 Sep 20:55:35 20:57:08 11° 278° (W) 20:58:41 437.470
DELFI C3 21 Sep 21:05:40 21:08:44 22° 62° (ENE) 21:11:48 145.870
Max Valier Satellite 21 Sep 21:07:14 21:09:41 17° 60° (ENE) 21:12:10 145.860
STARS 21 Sep 21:12:24 21:15:12 17° 305° (NW) 21:17:59 437.465
Tancredo 1 21 Sep 21:15:22 21:15:48 10° 142° (SE) 21:16:13 437.200
AO-73 21 Sep 21:47:55 21:51:54 34° 265° (W) 21:55:59 145.935
ZACube-1 21 Sep 21:49:24 21:53:15 30° 266° (W) 21:57:13 437.345
Oscar 11 21 Sep 21:49:42 21:53:51 43° 262° (W) 21:58:02 .
HO-68 21 Sep 21:59:58 22:03:41 15° 278° (W) 22:07:25 435.675
BEESAT 3 21 Sep 22:01:45 22:05:46 72° 130° (SE) 22:09:49 437.485
ESTCUBE 1 21 Sep 22:02:45 22:03:32 10° 49° (NE) 22:04:19 437.505/2401.250
BEESAT 2 21 Sep 22:03:47 22:07:19 30° 120° (ESE) 22:10:54 435.950
EO-88 21 Sep 22:12:08 22:15:44 55° 71° (ENE) 22:19:21 145.990 - 145.960
SO-50 21 Sep 22:13:30 22:17:40 33° 30° (NNE) 22:21:51 436.795
NO-84 21 Sep 22:16:34 22:17:14 11° 228° (SW) 22:17:54 435.350 FM
YUBILEINY 21 Sep 22:16:45 22:23:09 22° 49° (NE) 22:29:32 435.215
PCSat 21 Sep 22:23:37 22:27:57 24° 22° (NNE) 22:32:18 145.827
STRAND 1 21 Sep 22:27:52 22:32:28 34° 298° (WNW) 22:37:04 437.568
AO-85 21 Sep 22:34:30 22:38:19 56° 128° (SE) 22:42:15 145.980
DELFI C3 21 Sep 22:39:26 22:43:15 47° 261° (W) 22:47:06 145.870
Max Valier Satellite 21 Sep 22:39:28 22:43:09 58° 259° (W) 22:46:52 145.860
FO-29 21 Sep 22:44:46 22:50:02 59° 102° (ESE) 22:55:44 435.910
Tancredo 1 21 Sep 22:47:13 22:49:47 38° 160° (SSE) 22:52:20 437.200
nSIGHT-1 21 Sep 22:54:15 22:56:34 18° 146° (SE) 22:58:55 .
UNISAT 6 21 Sep 22:56:35 23:00:46 32° 95° (E) 23:04:59 437.425
PRISM 21 Sep 23:04:06 23:07:03 19° 91° (E) 23:09:59 437.425
LO-87 21 Sep 23:16:35 23:19:56 42° 70° (ENE) 23:23:19 145.935 - 145.965
TIGRISAT 21 Sep 23:20:49 23:25:19 48° 99° (E) 23:29:52 435.000
ESTCUBE 1 21 Sep 23:34:58 23:39:22 53° 69° (ENE) 23:43:48 437.505/2401.250
BEESAT 3 21 Sep 23:40:12 23:43:42 27° 331° (NNW) 23:47:12 437.485
BEESAT 2 21 Sep 23:41:00 23:44:56 48° 321° (NW) 23:48:55 435.950
ISS 21 Sep 23:45:34 23:48:34 34° 155° (SSE) 23:51:36 437.550
EO-88 21 Sep 23:47:25 23:49:43 16° 270° (W) 23:52:03 145.990 - 145.960
SO-50 21 Sep 23:53:54 23:58:26 65° 231° (SW) 00:03:01 436.795
PCSat 22 Sep 00:07:00 00:12:24 62° 46° (NE) 00:17:47 145.827
YUBILEINY 22 Sep 00:13:08 00:21:52 70° 75° (ENE) 00:30:35 435.215
VELOX 1 22 Sep 00:14:57 00:18:49 31° 63° (ENE) 00:22:41 145.980
AO-85 22 Sep 00:15:26 00:18:58 30° 330° (NNW) 00:22:35 145.980
POLYITAN 1 22 Sep 00:15:38 00:17:24 12° 86° (E) 00:19:09 437.675
EO-79 22 Sep 00:20:19 00:22:28 13° 87° (E) 00:24:36 145.935-145.965
Tancredo 1 22 Sep 00:21:27 00:24:10 72° 178° (S) 00:26:53 437.200
nSIGHT-1 22 Sep 00:29:16 00:32:27 55° 164° (SSE) 00:35:39 .
FO-29 22 Sep 00:30:31 00:34:56 28° 301° (WNW) 00:39:36 435.910
SPROUT 22 Sep 00:31:49 00:35:55 52° 69° (ENE) 00:40:04 437.525
QB50P2 22 Sep 00:32:21 00:35:26 19° 90° (E) 00:38:30 145.880/145.840
UNISAT 6 22 Sep 00:33:13 00:37:33 40° 294° (WNW) 00:41:54 437.425
AIST 2D 22 Sep 00:36:42 00:40:04 39° 98° (E) 00:43:23 435.315
PRISM 22 Sep 00:38:40 00:42:39 54° 290° (WNW) 00:46:36 437.425
LO-87 22 Sep 00:51:02 00:53:33 18° 268° (W) 00:56:06 145.935 - 145.965
TIGRISAT 22 Sep 00:57:53 01:01:49 28° 298° (WNW) 01:05:47 435.000
NANOSAT C BR1 22 Sep 01:09:43 01:13:37 34° 96° (E) 01:17:30 145.865
50 SAT 22 Sep 01:09:50 01:12:47 30° 67° (ENE) 01:15:44 437.505
ESTCUBE 1 22 Sep 01:12:50 01:16:28 23° 268° (W) 01:20:08 437.505/2401.250
BEESAT 3 22 Sep 01:20:04 01:22:29 15° 354° (N) 01:24:53 437.485
BEESAT 2 22 Sep 01:20:40 01:23:33 18° 343° (NNW) 01:26:27 435.950
ISS 22 Sep 01:21:32 01:24:49 73° 174° (S) 01:28:07 437.550
UKube-1 22 Sep 01:29:06 01:32:57 33° 64° (ENE) 01:36:50 .
DX 1 22 Sep 01:30:50 01:35:00 48° 67° (ENE) 01:39:11 434.975-435.025
Oscar 19 22 Sep 01:33:06 01:33:38 10° 82° (E) 01:34:09 437.125/150
SO-50 22 Sep 01:36:26 01:38:04 12° 251° (WSW) 01:39:42 436.795
DUCHIFAT 1 22 Sep 01:39:20 01:43:32 57° 101° (E) 01:47:44 145.980
